Weather History for Albuquerque, NM

Change the Weather History Date:

Wednesday, April 23, 2014

  Actual Average Record
Temperature  
Mean Temperature 65 °F 58 °F  
Max Temperature 77 °F 71 °F 85 °F (2002)
Min Temperature 53 °F 45 °F 24 °F (1895)
Degree Days  
Heating Degree Days 0 7  
Month to date heating degree days 179 235  
Since 1 July heating degree days 3792 4062  
Cooling Degree Days 0 0  
Month to date cooling degree days 6 0  
Year to date cooling degree days 6 0  
Growing Degree Days 15 (Base 50)    
Moisture  
Dew Point 20 °F    
Average Humidity 24    
Maximum Humidity 38    
Minimum Humidity 9    
Precipitation  
Precipitation 0.00 in 0.02 in 1.32 in (1905)
Month to date precipitation 0.01 0.49  
Year to date precipitation 0.41 1.92  
Snow  
Snow 0.00 in - - ()
Month to date snowfall 0.0  
Since 1 July snowfall 6.6  
Snow Depth 0.00 in    
Sea Level Pressure  
Sea Level Pressure 29.66 in    
Wind  
Wind Speed 14 mph (WSW)    
Max Wind Speed 37 mph    
Max Gust Speed 48 mph    
Visibility 10 miles    
Events      
T = Trace of Precipitation, MM = Missing Value Source: NWS Daily Summary

Daily Weather History Graph

Daily Weather History Graph

Search for Another Location

Airport:

Trip Planner

Search our weather history database for the weather conditions in past years. The results will help you decide how hot, cold, wet, or windy it might be!

Date:

Astronomy

Apr. 23, 2014 Rise Set
Actual Time 6:24 AM MDT 7:45 PM MDT
Civil Twilight 5:57 AM MDT 8:12 PM MDT
Nautical Twilight 5:26 AM MDT 8:43 PM MDT
Astronomical Twilight 4:53 AM MDT 9:17 PM MDT
Moon 2:44 AM MDT (4/23) 2:10 PM MDT (4/23)
Length of Visible Light 14h 14m
Length of Day
13h 21m
Waning Crescent, 34% of the Moon is Illuminated
Apr 23
Waning Crescent
Apr 29
New
May 6
First Quarter
May 14
Full
May 21
Last Quarter

Hourly Weather History & Observations

Time (MDT) Temp. Dew Point Humidity Pressure Visibility Wind Dir Wind Speed Gust Speed Precip Events Conditions
12:52 AM 66.9 °F 28.9 °F 24% 29.61 in 10.0 mi South 12.7 mph - N/A   Scattered Clouds
1:52 AM 64.0 °F 28.9 °F 27% 29.62 in 10.0 mi South 6.9 mph - N/A   Mostly Cloudy
2:52 AM 62.1 °F 28.9 °F 29% 29.62 in 10.0 mi SE 4.6 mph - N/A   Mostly Cloudy
3:52 AM 60.1 °F 28.9 °F 31% 29.62 in 10.0 mi ESE 4.6 mph - N/A   Mostly Cloudy
4:52 AM 59.0 °F 28.9 °F 32% 29.62 in 10.0 mi SE 3.5 mph - N/A   Mostly Cloudy
5:52 AM 60.1 °F 27.0 °F 28% 29.64 in 10.0 mi West 5.8 mph - N/A   Scattered Clouds
6:52 AM 53.1 °F 28.0 °F 38% 29.68 in 10.0 mi ESE 5.8 mph - N/A   Mostly Cloudy
7:52 AM 61.0 °F 26.1 °F 26% 29.68 in 10.0 mi SW 6.9 mph - N/A   Scattered Clouds
8:52 AM 64.0 °F 27.0 °F 25% 29.68 in 10.0 mi WSW 13.8 mph - N/A   Partly Cloudy
9:52 AM 66.0 °F 25.0 °F 21% 29.67 in 10.0 mi West 18.4 mph - N/A   Partly Cloudy
10:52 AM 68.0 °F 23.0 °F 18% 29.67 in 10.0 mi WSW 13.8 mph 25.3 mph N/A   Partly Cloudy
11:52 AM 69.1 °F 21.0 °F 16% 29.66 in 10.0 mi SW 12.7 mph - N/A   Partly Cloudy
12:52 PM 71.1 °F 19.0 °F 14% 29.62 in 10.0 mi WSW 13.8 mph 20.7 mph N/A   Partly Cloudy
1:52 PM 73.9 °F 12.0 °F 9% 29.58 in 10.0 mi WSW 21.9 mph 29.9 mph N/A   Scattered Clouds
2:52 PM 75.0 °F 14.0 °F 10% 29.55 in 10.0 mi West 20.7 mph 26.5 mph N/A   Mostly Cloudy
3:52 PM 72.0 °F 14.0 °F 11% 29.55 in 10.0 mi SW 19.6 mph 32.2 mph N/A   Overcast
3:55 PM 71.1 °F 16.0 °F 12% 29.76 in 10.0 mi SW 15.0 mph 32.2 mph N/A   Overcast
4:52 PM 72.0 °F 14.0 °F 11% 29.55 in 10.0 mi West 26.5 mph 46.0 mph N/A   Overcast
5:52 PM 69.1 °F 10.9 °F 11% 29.58 in 10.0 mi WNW 29.9 mph 39.1 mph N/A   Mostly Cloudy
6:17 PM 63.0 °F 23.0 °F 22% 29.81 in 10.0 mi NNW 21.9 mph 38.0 mph N/A   Mostly Cloudy
6:52 PM 64.0 °F 23.0 °F 21% 29.65 in 10.0 mi NNW 18.4 mph 29.9 mph N/A   Mostly Cloudy
7:52 PM 63.0 °F 17.1 °F 17% 29.67 in 10.0 mi NW 20.7 mph 31.1 mph N/A   Scattered Clouds
8:52 PM 61.0 °F 15.1 °F 17% 29.70 in 10.0 mi NNW 16.1 mph 24.2 mph N/A   Scattered Clouds
9:52 PM 57.0 °F 16.0 °F 20% 29.73 in 10.0 mi NW 6.9 mph - N/A   Partly Cloudy
10:52 PM 57.0 °F 10.9 °F 16% 29.76 in 10.0 mi NW 11.5 mph - N/A   Clear
11:52 PM 55.0 °F 12.0 °F 18% 29.79 in 10.0 mi NNW 16.1 mph 24.2 mph N/A   Clear